Location: Unspecified
(0.0000°N, 0.0000°E)
Time: 22:54:52
(UTC+00:00)

Explorer 11/Cluster Stage 4 - Visible Passes

Search period start: 19 November 2019 00:00
Search period end: 29 November 2019 00:00
Orbit: 467 x 1259 km, 28.8° (Epoch: 19 November)

Date Brightness Start Highest point End Pass type
(mag) Time Alt. Az. Time Alt. Az. Time Alt. Az.
19 Nov 7.3 03:27:21 74° NNE 03:27:38 75° NNE 03:35:03 10° ESE visible
19 Nov 8.2 05:09:56 10° W 05:16:53 34° SSW 05:22:53 10° SSE visible
20 Nov 7.4 03:17:20 79° ESE 03:17:20 79° ESE 03:24:24 10° ESE visible
20 Nov 8.4 04:59:28 10° W 05:06:06 30° SSW 05:12:04 10° SSE visible
21 Nov 7.7 03:07:16 65° SE 03:07:16 65° SE 03:13:42 10° SE visible
21 Nov 8.6 04:49:24 12° W 04:55:20 26° SSW 05:01:11 10° SSE visible
22 Nov 8.0 02:57:09 52° SSE 02:57:09 52° SSE 03:02:55 10° SE visible
22 Nov 8.8 04:39:17 12° WSW 04:44:35 23° SSW 04:50:14 10° SSE visible
23 Nov 8.4 02:46:59 42° SSE 02:46:59 42° SSE 02:52:05 10° SE visible
23 Nov 9.0 04:29:07 13° WSW 04:33:52 21° SSW 04:39:14 10° SSE visible
24 Nov 8.7 02:36:46 34° SSE 02:36:46 34° SSE 02:41:12 10° SE visible
24 Nov 9.2 04:18:54 12° WSW 04:23:09 18° SSW 04:28:09 10° SSE visible
25 Nov 9.0 02:26:30 28° SSE 02:26:30 28° SSE 02:30:14 10° SE visible
25 Nov 9.3 04:08:37 12° SW 04:12:29 16° SSW 04:16:59 10° S visible
26 Nov 9.3 02:16:11 23° SSE 02:16:11 23° SSE 02:19:13 10° SE visible
26 Nov 9.4 03:58:18 11° SW 04:01:50 14° SSW 04:05:44 10° S visible
27 Nov 9.5 02:05:49 19° SSE 02:05:49 19° SSE 02:08:09 10° SE visible
27 Nov 9.5 03:48:10 10° SW 03:51:14 12° SSW 03:54:18 10° S visible
28 Nov 9.7 01:55:25 15° SSE 01:55:25 15° SSE 01:57:01 10° SSE visible
28 Nov 9.6 03:38:51 10° SSW 03:40:40 11° SSW 03:42:29 10° S visible
